Wind_Speed
2 3 3 4 4 4 4 3 3 1 1 2 2 2 2 2 2 2 2 3 3 3 3 3 3 4 4 4 3 3 3 3 4 4 4 4 4 4 3 3 2 2 2
2 2 3 3 4 4 4 3 2 2 2 2 2 2 2 2 2 3 3 3 3 3 4 4 5 5 4 4 4 4 4 4 5 5 5 4 4 4 4 3 2 2 2
3 3 3 3 4 4 3 3 3 3 3 3 3 3 3 3 3 3 4 4 4 4 4 5 6 5 5 4 4 4 4 4 4 5 6 6 5 5 4 4 4 4 3
3 3 3 3 4 4 4 4 4 4 5 5 4 4 3 3 3 4 4 4 5 5 5 5 5 4 4 4 4 4 4 4 3 4 5 6 5 5 5 4 4 4 4
4 3 3 4 4 4 5 5 5 5 5 5 6 5 4 4 4 4 5 5 5 5 5 5 4 4 4 4 4 5 4 4 4 4 5 6 6 5 5 5 5 5 4
4 4 3 4 4 5 5 5 5 5 6 5 5 5 5 5 5 5 5 5 5 5 5 5 5 4 4 5 5 5 5 5 4 5 5 6 6 6 6 6 6 6 5
5 4 4 5 5 5 5 6 5 5 5 5 5 5 6 6 6 6 6 7 7 6 6 6 6 5 5 5 5 5 5 5 5 4 5 5 6 6 6 6 6 6 6
6 5 5 5 5 5 6 6 6 6 6 5 5 6 6 6 6 6 7 7 7 7 6 6 6 6 6 6 5 6 6 6 5 4 4 5 6 6 6 6 6 6 6
6 5 6 6 6 6 6 6 6 6 6 5 5 6 6 6 7 7 6 6 6 7 6 6 6 6 6 6 6 5 5 5 6 5 5 5 6 6 7 7 7 7 7
6 6 6 7 7 7 7 7 6 6 5 5 5 6 6 6 6 7 6 6 6 6 6 6 6 6 6 6 6 6 6 6 6 5 6 6 6 7 7 7 7 7 8
6 6 6 6 7 7 6 7 6 6 6 6 6 6 6 6 7 7 6 6 6 6 6 6 6 6 6 7 7 6 6 6 6 6 6 6 6 7 7 8 8 8 8
7 7 7 7 7 7 6 6 7 7 7 7 7 7 7 7 7 7 7 7 7 7 6 6 7 7 7 7 7 6 6 6 7 7 7 6 6 6 7 7 7 6 7
7 7 7 6 6 7 7 7 7 7 7 7 7 7 7 7 7 7 7 7 7 7 7 7 8 8 8 7 7 8 7 8 7 7 7 7 7 7 7 7 6 7 6
8 8 8 7 7 7 6 7 7 7 6 7 7 7 7 7 7 7 7 8 8 8 7 7 8 8 8 8 8 8 8 8 7 7 7 7 6 6 7 7 7 7 6
8 8 7 7 7 7 7 7 7 7 6 6 6 7 6 7 7 7 7 8 8 8 8 8 8 8 8 8 8 8 8 8 8 7 6 7 7 7 7 7 7 7 7
7 7 7 7 7 7 7 7 7 6 6 6 6 7 7 7 7 7 7 8 8 9 9 9 9 9 9 9 8 8 8 8 7 7 7 7 7 7 7 7 7 7 6
7 6 7 7 7 7 6 6 6 6 7 7 6 6 7 7 7 7 8 8 9 9 8 9 9 9 9 9 8 8 8 8 7 7 7 6 7 7 7 7 7 7 7
7 6 7 6 7 6 6 6 6 7 7 7 7 7 7 7 7 8 8 9 8 8 9 9 9 9 8 8 8 8 7 7 7 7 7 7 7 7 7 7 7 7 8
7 7 7 7 7 7 6 6 6 7 7 7 7 7 7 7 7 8 8 8 8 8 8 8 8 8 8 8 8 8 8 8 8 8 8 8 8 8 8 8 8 8 9
7 7 7 7 7 7 7 6 6 7 7 7 7 7 7 7 8 8 8 8 8 7 7 7 7 7 8 8 8 8 8 8 8 8 8 8 8 8 8 8 9 9 9
7 8 8 8 7 7 8 8 8 8 8 7 7 7 7 7 8 8 8 7 7 7 7 7 7 7 8 8 8 8 8 8 8 8 8 9 9 9 9 9 9 9 10
7 8 8 8 8 8 8 9 9 9 8 7 7 7 7 8 7 7 7 7 7 7 8 8 7 7 8 8 8 7 7 7 8 8 9 9 9 9 9 9 9 10 10
8 8 9 9 9 9 9 10 10 9 9 8 8 8 8 8 7 7 8 8 7 7 7 7 7 7 7 7 7 7 8 8 8 8 9 9 9 9 9 10 9 10 10
9 9 9 9 9 10 10 9 9 9 8 9 9 8 8 8 8 8 8 8 8 8 7 7 7 7 8 8 8 8 8 8 9 9 9 9 9 9 9 10 10 9 9
10 10 10 10 10 10 9 10 10 10 10 9 9 9 9 9 9 9 9 8 8 9 9 8 8 8 8 9 9 9 9 9 9 9 10 10 9 9 10 9 10 10 10
10 11 10 10 11 10 10 10 11 11 10 10 10 10 10 10 10 10 10 9 9 9 9 9 9 9 10 10 10 10 10 10 10 10 9 9 10 10 10 10 10 10 10
Wind_Direction
18 23 18 21 21 18 17 19 27 24 4 333 315 310 301 275 261 256 253 252 259 269 288 298 292 282 272 267 262 258 257 256 248 243 238 233 229 230 232 231 248 238 246
346 343 351 2 6 4 2 2 356 341 328 324 317 303 285 273 265 267 258 265 271 275 290 301 296 279 267 264 264 265 264 263 256 250 244 235 237 237 237 240 249 244 251
314 312 324 339 353 351 342 336 329 318 311 309 302 300 288 286 284 269 265 271 278 280 291 300 298 283 266 263 268 271 271 265 259 253 245 242 242 242 245 250 249 249 254
300 308 316 320 330 334 326 317 313 309 302 292 294 297 294 284 286 277 272 274 279 280 291 301 307 285 258 263 271 276 269 268 268 263 250 243 241 244 245 251 253 251 252
295 308 312 316 322 326 323 321 310 306 302 292 293 293 290 281 278 278 281 278 281 282 287 297 302 279 269 271 276 280 279 279 277 273 254 245 245 246 248 254 255 256 258
288 299 306 306 315 319 318 321 313 307 299 290 289 287 283 280 275 274 278 280 283 284 281 289 292 284 282 280 278 283 283 281 278 279 260 248 246 249 253 257 254 257 260
283 286 292 297 305 312 311 312 314 313 302 289 282 280 279 279 277 274 275 281 282 284 283 283 284 276 274 277 280 285 289 285 279 275 261 249 249 253 257 260 256 258 260
274 277 285 289 293 300 306 309 308 307 299 290 284 283 284 282 280 278 276 279 279 282 281 280 280 278 273 273 279 287 292 290 280 275 267 252 250 253 255 258 261 259 259
272 275 280 283 287 297 303 309 309 307 299 292 287 287 288 287 287 289 281 282 283 282 279 278 280 274 270 269 273 281 284 286 276 273 272 265 256 253 255 259 259 259 257
275 279 281 282 286 293 301 305 307 303 300 298 293 289 289 290 291 292 286 284 279 283 280 279 283 272 271 271 271 273 280 282 284 282 272 266 261 256 253 255 257 260 258
275 277 279 282 286 288 292 299 301 299 297 293 289 287 286 288 290 292 290 285 281 281 280 280 283 281 277 273 272 274 277 279 280 278 279 274 265 261 258 255 255 261 257
271 276 280 278 286 288 289 292 294 298 298 295 290 287 289 291 292 290 289 284 282 282 281 284 285 283 275 274 274 276 277 282 280 279 279 280 271 267 263 259 254 260 259
272 276 281 283 285 285 287 293 294 297 297 298 291 286 289 294 290 285 285 281 279 280 281 285 284 281 277 277 276 277 278 282 283 287 285 277 271 271 268 268 269 264 265
273 274 271 272 280 285 286 287 293 295 296 297 296 291 288 289 289 285 283 277 275 277 280 282 282 282 279 276 275 274 273 276 277 283 284 277 272 271 268 270 271 267 266
274 272 270 271 279 282 282 286 292 295 295 297 294 294 291 292 293 290 284 278 278 281 286 287 283 283 279 276 276 274 271 273 272 274 278 275 270 268 267 267 266 265 262
280 281 278 277 281 286 283 287 292 293 294 299 294 291 295 298 297 292 288 285 289 289 286 282 281 279 275 273 271 269 273 273 267 270 276 274 269 266 266 264 264 263 264
277 276 274 277 280 283 277 280 287 295 301 302 294 295 291 294 296 293 290 289 292 292 292 285 280 276 272 270 270 271 271 270 268 272 274 274 270 267 266 267 264 264 268
274 275 273 278 282 280 276 284 294 295 299 303 297 294 291 292 294 291 289 287 290 291 291 289 282 276 270 273 275 274 271 270 271 271 272 276 278 276 270 268 268 267 267
279 283 283 286 283 280 280 284 290 294 296 297 296 290 286 286 288 290 292 290 289 292 291 286 282 274 268 270 273 273 273 272 272 273 273 273 277 280 278 273 273 270 268
277 284 287 285 281 282 281 285 287 289 292 291 291 295 287 282 284 286 289 291 292 293 292 289 286 276 269 268 268 270 273 272 271 273 275 275 277 279 277 275 276 273 272
275 279 280 281 281 283 284 282 284 287 287 283 285 292 297 291 286 283 284 284 288 295 294 297 288 273 268 267 268 268 271 270 271 274 275 274 274 275 274 276 275 274 274
276 279 280 279 279 279 282 284 285 284 283 286 289 288 289 292 291 287 286 290 288 289 291 292 284 281 278 273 271 269 270 271 273 275 276 274 273 274 276 276 275 275 274
281 282 282 279 276 277 280 286 286 283 282 281 282 281 282 282 283 285 287 289 288 288 289 288 286 282 284 280 275 275 274 271 272 274 274 273 275 276 278 280 279 280 277
279 279 279 276 275 274 276 279 278 279 281 276 276 278 277 279 283 285 284 285 283 284 285 286 283 284 283 282 279 275 275 274 272 271 273 273 275 277 278 279 277 278 278
280 280 279 275 272 272 272 272 274 276 280 277 275 278 277 277 280 283 284 284 282 279 281 278 276 280 284 284 282 279 276 274 272 271 272 275 276 277 279 280 279 279 279
282 281 278 275 272 271 272 273 273 275 278 277 276 278 278 277 277 281 279 282 283 282 278 272 273 276 280 282 281 279 276 274 271 271 272 273 273 275 276 277 279 276 277
Height
5891 5891 5890 5890 5889 5888 5888 5887 5887 5886 5886 5886 5885 5885 5884 5884 5884 5883 5883 5883 5882 5882 5881 5881 5880 5879 5879 5879 5879 5878 5878 5878 5877 5877 5877 5877 5877 5877 5877 5877 5877 5876 5876
5891 5891 5890 5890 5889 5889 5888 5888 5887 5887 5886 5886 5885 5885 5884 5884 5884 5883 5883 5882 5882 5881 5880 5880 5878 5877 5878 5878 5878 5878 5877 5877 5877 5876 5876 5876 5876 5876 5876 5876 5876 5876 5876
5891 5891 5890 5890 5889 5889 5888 5888 5887 5887 5886 5886 5885 5884 5884 5883 5883 5883 5882 5881 5881 5880 5879 5878 5876 5874 5875 5877 5877 5877 5877 5876 5876 5876 5875 5875 5875 5875 5875 5875 5875 5875 5875
5890 5890 5890 5889 5889 5889 5888 5888 5887 5887 5886 5885 5884 5884 5883 5883 5882 5882 5881 5881 5880 5879 5879 5877 5874 5871 5873 5876 5876 5876 5876 5875 5875 5875 5874 5874 5874 5874 5874 5874 5874 5874 5874
5890 5889 5889 5889 5889 5888 5888 5887 5887 5886 5885 5885 5884 5883 5883 5882 5882 5881 5881 5880 5879 5879 5878 5877 5875 5873 5874 5875 5876 5875 5875 5875 5874 5874 5873 5873 5873 5873 5873 5873 5873 5873 5873
5889 5889 5889 5888 5888 5888 5887 5887 5886 5885 5884 5884 5883 5882 5882 5881 5881 5880 5880 5879 5878 5878 5877 5876 5876 5875 5875 5875 5875 5874 5874 5874 5873 5873 5872 5872 5872 5872 5872 5872 5872 5872 5872
5888 5888 5888 5888 5887 5887 5887 5886 5885 5884 5883 5882 5882 5881 5881 5880 5880 5879 5879 5878 5878 5877 5876 5876 5875 5875 5874 5874 5874 5874 5873 5873 5872 5872 5871 5871 5871 5871 5871 5871 5871 5871 5871
5887 5887 5887 5887 5886 5886 5885 5885 5884 5883 5882 5881 5881 5880 5880 5879 5879 5878 5877 5877 5876 5876 5875 5875 5874 5874 5874 5873 5873 5873 5872 5872 5871 5871 5870 5870 5870 5870 5870 5870 5870 5870 5870
5885 5886 5885 5885 5885 5885 5884 5884 5883 5882 5881 5880 5880 5879 5878 5878 5877 5877 5876 5875 5875 5874 5874 5873 5873 5873 5872 5872 5872 5871 5871 5871 5870 5870 5869 5869 5869 5869 5869 5869 5868 5868 5868
5884 5884 5884 5884 5884 5883 5883 5882 5882 5881 5880 5879 5878 5877 5877 5876 5876 5875 5875 5874 5874 5873 5873 5872 5872 5871 5871 5871 5871 5870 5870 5869 5869 5869 5868 5868 5867 5867 5867 5867 5867 5867 5867
5883 5883 5883 5883 5882 5882 5882 5881 5880 5879 5879 5878 5877 5876 5875 5875 5874 5874 5873 5873 5872 5872 5871 5871 5871 5870 5870 5870 5869 5869 5868 5868 5868 5867 5867 5866 5866 5865 5865 5865 5865 5865 5865
5881 5881 5881 5881 5881 5880 5880 5879 5879 5878 5877 5876 5875 5874 5874 5873 5872 5872 5872 5871 5871 5870 5870 5870 5869 5869 5869 5868 5868 5867 5867 5867 5866 5866 5865 5865 5864 5864 5864 5864 5864 5864 5863
5880 5880 5879 5879 5879 5878 5878 5878 5877 5876 5876 5875 5874 5873 5872 5871 5871 5870 5870 5869 5869 5869 5868 5868 5868 5867 5867 5867 5866 5866 5865 5865 5865 5864 5864 5863 5863 5862 5862 5862 5862 5862 5862
5878 5878 5878 5878 5877 5877 5877 5876 5876 5875 5874 5873 5872 5871 5871 5870 5869 5869 5868 5868 5867 5867 5867 5866 5866 5865 5865 5865 5864 5864 5864 5863 5863 5863 5862 5861 5861 5861 5861 5861 5861 5860 5860
5876 5876 5876 5876 5876 5875 5875 5874 5874 5873 5872 5871 5871 5870 5869 5868 5868 5867 5866 5866 5865 5865 5865 5864 5864 5863 5863 5863 5863 5862 5862 5862 5861 5861 5860 5860 5860 5859 5859 5859 5859 5859 5859
5875 5874 5874 5874 5874 5873 5873 5873 5872 5871 5871 5870 5869 5868 5868 5867 5866 5865 5865 5864 5864 5863 5863 5863 5862 5862 5861 5861 5861 5860 5860 5860 5859 5859 5859 5858 5858 5858 5857 5857 5857 5857 5857
5873 5873 5872 5872 5872 5872 5871 5871 5870 5869 5869 5868 5867 5866 5866 5865 5864 5863 5863 5862 5862 5861 5861 5861 5860 5860 5859 5859 5859 5859 5858 5858 5858 5857 5857 5857 5856 5856 5856 5855 5855 5855 5855
5871 5871 5871 5870 5870 5870 5869 5868 5868 5867 5867 5866 5865 5864 5864 5863 5862 5862 5861 5860 5860 5860 5859 5858 5858 5858 5857 5857 5857 5857 5856 5856 5856 5856 5856 5855 5855 5854 5854 5854 5853 5853 5853
5869 5869 5868 5868 5868 5868 5867 5867 5866 5865 5865 5864 5863 5862 5862 5861 5861 5860 5859 5859 5858 5858 5857 5856 5856 5856 5856 5855 5855 5855 5855 5855 5854 5854 5854 5854 5853 5853 5852 5852 5852 5851 5851
5866 5867 5866 5866 5866 5866 5865 5864 5864 5864 5863 5862 5861 5860 5860 5859 5859 5858 5857 5857 5856 5856 5855 5854 5854 5854 5854 5854 5853 5853 5853 5853 5853 5852 5852 5852 5851 5851 5850 5850 5850 5849 5849
5864 5864 5864 5864 5864 5863 5863 5862 5862 5861 5861 5860 5859 5858 5858 5857 5857 5856 5855 5855 5854 5854 5853 5852 5852 5852 5852 5852 5852 5851 5851 5851 5851 5850 5850 5850 5849 5849 5848 5848 5847 5847 5846
5862 5862 5862 5862 5861 5861 5861 5860 5860 5859 5858 5858 5857 5856 5856 5855 5855 5854 5853 5853 5853 5852 5851 5851 5851 5850 5850 5850 5850 5849 5849 5850 5849 5848 5848 5848 5847 5847 5846 5846 5845 5844 5844
5860 5860 5859 5859 5859 5858 5858 5858 5857 5857 5856 5856 5855 5854 5854 5853 5853 5852 5852 5851 5851 5850 5850 5849 5849 5848 5848 5848 5848 5848 5847 5847 5847 5846 5846 5846 5845 5844 5844 5843 5842 5842 5841
5857 5857 5857 5856 5856 5856 5856 5855 5855 5854 5854 5853 5853 5852 5852 5851 5851 5850 5850 5849 5849 5848 5848 5848 5847 5847 5846 5846 5845 5845 5845 5845 5845 5844 5844 5843 5843 5842 5842 5841 5840 5839 5838
5855 5854 5854 5854 5853 5853 5853 5853 5852 5852 5852 5851 5850 5850 5850 5849 5849 5848 5848 5847 5847 5846 5846 5846 5845 5845 5844 5844 5843 5843 5842 5842 5842 5841 5841 5841 5840 5840 5839 5838 5837 5836 5836
5852 5851 5851 5851 5850 5850 5850 5850 5850 5849 5849 5848 5848 5847 5847 5847 5846 5846 5846 5845 5845 5844 5844 5843 5843 5842 5842 5841 5841 5840 5840 5839 5839 5839 5838 5838 5837 5837 5836 5836 5835 5834 5833